When you browse on this site, cookies collect data to enhance your experience and personalize the content and advertising you see.
Visit our Privacy Policy to learn more. By continuing to use the site, you agree to this use of cookies and data.
  • In Hungary
  • List of Countries
  • For 7 days
  • Water Temperature
  • Satellite Maps
  • Weather Map
  • News
  • Weather Widgets
  • user-avatar
    Login

    Hourly Weather Yurevka

    Today, 23 April, Tuesday

    Time Temperature Precipitation Wind Pressure Humidity
    00:00 +13°C° 0 mm 1 mps 763 mmHg 51%
    01:00 +13°C° 0 mm 1 mps 763 mmHg 51%
    02:00 +13°C° 0 mm 1 mps 762 mmHg 53%
    03:00 +13°C° 0 mm 1 mps 763 mmHg 54%
    04:00 +12°C° 0 mm 1 mps 763 mmHg 56%
    05:00 +12°C° 0 mm 1 mps 763 mmHg 58%
    06:00 +13°C° 0 mm 1 mps 763 mmHg 54%
    07:00 +15°C° 0 mm 1 mps 763 mmHg 51%
    08:00 +16°C° 0 mm 1 mps 764 mmHg 47%
    09:00 +18°C° 0 mm 1 mps 764 mmHg 42%
    10:00 +18°C° 0 mm 2 mps 764 mmHg 37%
    11:00 +19°C° 0 mm 2 mps 764 mmHg 32%
    12:00 +20°C° 0 mm 1 mps 764 mmHg 32%
    13:00 +20°C° 0 mm 1 mps 764 mmHg 32%
    14:00 +20°C° 0 mm 1 mps 764 mmHg 32%
    15:00 +20°C° 0 mm 1 mps 764 mmHg 32%
    16:00 +20°C° 0 mm 1 mps 764 mmHg 33%
    17:00 +20°C° 0 mm 1 mps 764 mmHg 34%
    18:00 +19°C° 0 mm 1 mps 764 mmHg 37%
    19:00 +16°C° 0 mm 1 mps 764 mmHg 41%
    20:00 +15°C° 0 mm 1 mps 764 mmHg 45%
    21:00 +14°C° 0 mm 1 mps 764 mmHg 46%
    22:00 +14°C° 0 mm 1 mps 764 mmHg 48%
    23:00 +13°C° 0 mm 1 mps 764 mmHg 49%

    Tomorrow, 24 April, Wednesday

    Time Temperature Precipitation Wind Pressure Humidity
    00:00 +13°C° 0 mm 1 mps 765 mmHg 51%
    01:00 +12°C° 0 mm 1 mps 765 mmHg 53%
    02:00 +12°C° 0 mm 1 mps 765 mmHg 54%
    03:00 +12°C° 0 mm 1 mps 765 mmHg 56%
    04:00 +12°C° 0 mm 1 mps 765 mmHg 58%
    05:00 +12°C° 0 mm 1 mps 765 mmHg 60%
    06:00 +13°C° 0 mm 1 mps 765 mmHg 56%
    07:00 +15°C° 0 mm 1 mps 765 mmHg 51%
    08:00 +17°C° 0 mm 2 mps 765 mmHg 47%
    09:00 +18°C° 0 mm 2 mps 765 mmHg 42%
    10:00 +19°C° 0 mm 2 mps 765 mmHg 37%
    11:00 +20°C° 0 mm 2 mps 765 mmHg 32%
    12:00 +21°C° 0 mm 2 mps 764 mmHg 31%
    13:00 +21°C° 0 mm 2 mps 764 mmHg 30%
    14:00 +23°C° 0 mm 2 mps 764 mmHg 30%
    15:00 +21°C° 0 mm 2 mps 764 mmHg 33%
    16:00 +21°C° 0 mm 2 mps 764 mmHg 36%
    17:00 +20°C° 0 mm 2 mps 764 mmHg 40%
    18:00 +19°C° 0 mm 2 mps 763 mmHg 43%
    19:00 +19°C° 0 mm 1 mps 763 mmHg 46%
    20:00 +16°C° 0 mm 1 mps 763 mmHg 50%
    21:00 +16°C° 0 mm 1 mps 764 mmHg 52%
    22:00 +16°C° 0 mm 1 mps 764 mmHg 54%
    23:00 +15°C° 0 mm 1 mps 764 mmHg 55%

    Day after tomorrow, 25 April, Thursday

    Time Temperature Precipitation Wind Pressure Humidity
    00:00 +15°C° 0 mm 1 mps 764 mmHg 57%
    01:00 +14°C° 0 mm 1 mps 764 mmHg 59%
    02:00 +14°C° 0 mm 2 mps 764 mmHg 61%
    03:00 +14°C° 0 mm 2 mps 764 mmHg 63%
    04:00 +13°C° 0 mm 2 mps 764 mmHg 66%
    05:00 +13°C° 0 mm 2 mps 764 mmHg 68%
    06:00 +15°C° 0 mm 2 mps 764 mmHg 64%
    07:00 +17°C° 0 mm 2 mps 764 mmHg 59%
    08:00 +19°C° 0 mm 2 mps 764 mmHg 54%
    09:00 +20°C° 0 mm 2 mps 764 mmHg 50%
    10:00 +21°C° 0 mm 2 mps 764 mmHg 46%
    11:00 +23°C° 0 mm 2 mps 764 mmHg 42%
    12:00 +24°C° 0 mm 2 mps 763 mmHg 40%
    13:00 +24°C° 0 mm 2 mps 763 mmHg 38%
    14:00 +25°C° 0 mm 2 mps 763 mmHg 36%
    15:00 +24°C° 0 mm 1 mps 763 mmHg 40%
    16:00 +23°C° 0 mm 1 mps 762 mmHg 43%
    17:00 +23°C° 0 mm 1 mps 762 mmHg 47%
    18:00 +22°C° 0 mm 1 mps 762 mmHg 48%
    19:00 +21°C° 0 mm 1 mps 762 mmHg 49%
    20:00 +20°C° 0 mm 2 mps 762 mmHg 50%
    21:00 +19°C° 0 mm 2 mps 762 mmHg 52%
    22:00 +19°C° 0 mm 2 mps 762 mmHg 54%
    23:00 +19°C° 0 mm 2 mps 762 mmHg 56%

    26 April, Friday

    Time Temperature Precipitation Wind Pressure Humidity
    00:00 +18°C° 0 mm 2 mps 762 mmHg 57%
    01:00 +18°C° 0 mm 2 mps 762 mmHg 58%
    02:00 +18°C° 0 mm 2 mps 762 mmHg 59%
    03:00 +18°C° 0 mm 2 mps 762 mmHg 61%
    04:00 +18°C° 0 mm 2 mps 762 mmHg 62%
    05:00 +17°C° 0 mm 2 mps 762 mmHg 63%
    06:00 +18°C° 0 mm 2 mps 762 mmHg 62%
    07:00 +20°C° 0 mm 1 mps 762 mmHg 61%
    08:00 +20°C° 0 mm 1 mps 762 mmHg 60%
    09:00 +22°C° 0 mm 1 mps 761 mmHg 53%
    10:00 +24°C° 0 mm 1 mps 761 mmHg 45%
    11:00 +25°C° 0 mm 1 mps 761 mmHg 38%
    12:00 +25°C° 0 mm 1 mps 761 mmHg 41%
    13:00 +24°C° 0 mm 1 mps 761 mmHg 44%
    14:00 +23°C° 0 mm 1 mps 760 mmHg 47%
    15:00 +23°C° 0 mm 1 mps 760 mmHg 48%
    16:00 +23°C° 0 mm 2 mps 760 mmHg 50%
    17:00 +23°C° 0 mm 2 mps 760 mmHg 52%
    18:00 +20°C° 0.1 mm 2 mps 760 mmHg 58%
    19:00 +19°C° 0.1 mm 2 mps 760 mmHg 64%
    20:00 +17°C° 0.1 mm 2 mps 760 mmHg 70%
    21:00 +17°C° 0.1 mm 2 mps 760 mmHg 73%
    22:00 +16°C° 0.1 mm 1 mps 760 mmHg 75%
    23:00 +16°C° 0.1 mm 1 mps 760 mmHg 78%

    27 April, Saturday

    Time Temperature Precipitation Wind Pressure Humidity
    00:00 +16°C° 0.2 mm 1 mps 760 mmHg 78%
    01:00 +16°C° 0.2 mm 1 mps 760 mmHg 77%
    02:00 +16°C° 0.2 mm 1 mps 760 mmHg 77%
    03:00 +16°C° 0 mm 1 mps 759 mmHg 77%
    04:00 +16°C° 0 mm 1 mps 759 mmHg 76%
    05:00 +14°C° 0 mm 0 mps 759 mmHg 76%
    06:00 +18°C° 0 mm 1 mps 759 mmHg 69%
    07:00 +20°C° 0 mm 1 mps 759 mmHg 62%
    08:00 +20°C° 0 mm 2 mps 759 mmHg 56%
    09:00 +21°C° 0 mm 2 mps 759 mmHg 50%
    10:00 +23°C° 0 mm 2 mps 759 mmHg 45%
    11:00 +24°C° 0 mm 2 mps 758 mmHg 40%
    12:00 +24°C° 0 mm 2 mps 758 mmHg 40%
    13:00 +24°C° 0 mm 3 mps 758 mmHg 40%
    14:00 +24°C° 0 mm 3 mps 757 mmHg 40%
    15:00 +22°C° 0 mm 3 mps 757 mmHg 42%
    16:00 +23°C° 0 mm 2 mps 757 mmHg 44%
    17:00 +23°C° 0 mm 2 mps 757 mmHg 46%
    18:00 +21°C° 0 mm 2 mps 757 mmHg 48%
    19:00 +20°C° 0 mm 2 mps 757 mmHg 50%
    20:00 +19°C° 0 mm 3 mps 757 mmHg 52%
    21:00 +18°C° 0 mm 2 mps 757 mmHg 53%
    22:00 +18°C° 0 mm 2 mps 756 mmHg 54%
    23:00 +17°C° 0 mm 2 mps 756 mmHg 55%

    28 April, Sunday

    Time Temperature Precipitation Wind Pressure Humidity
    00:00 +17°C° 0 mm 2 mps 756 mmHg 57%
    01:00 +16°C° 0 mm 1 mps 756 mmHg 59%
    02:00 +15°C° 0 mm 1 mps 756 mmHg 61%
    03:00 +15°C° 0 mm 1 mps 756 mmHg 63%
    04:00 +14°C° 0 mm 1 mps 755 mmHg 65%
    05:00 +14°C° 0 mm 1 mps 755 mmHg 67%
    06:00 +16°C° 0 mm 1 mps 755 mmHg 62%
    07:00 +18°C° 0 mm 2 mps 755 mmHg 57%
    08:00 +20°C° 0 mm 2 mps 755 mmHg 51%
    09:00 +21°C° 0 mm 2 mps 755 mmHg 47%
    10:00 +22°C° 0 mm 3 mps 755 mmHg 43%
    11:00 +23°C° 0 mm 4 mps 754 mmHg 39%
    12:00 +25°C° 0 mm 4 mps 754 mmHg 38%
    13:00 +25°C° 0 mm 4 mps 754 mmHg 36%
    14:00 +25°C° 0 mm 4 mps 753 mmHg 35%
    15:00 +25°C° 0 mm 3 mps 753 mmHg 37%
    16:00 +25°C° 0 mm 3 mps 753 mmHg 38%
    17:00 +24°C° 0 mm 3 mps 753 mmHg 40%
    18:00 +23°C° 0 mm 2 mps 753 mmHg 44%
    19:00 +20°C° 0 mm 2 mps 753 mmHg 48%
    20:00 +18°C° 0 mm 2 mps 753 mmHg 52%
    21:00 +19°C° 0 mm 1 mps 753 mmHg 52%
    22:00 +18°C° 0 mm 1 mps 753 mmHg 53%
    23:00 +18°C° 0 mm 1 mps 753 mmHg 54%
    Show more